SL-12 DEB, 41677

Orbit data source: Space-Track

SL-12 DEB, 41677 is space debris in HEO originally from a launch on Fri, 26 Oct 2007 UTC launched from the Tyuratam Missile And Space Complex (TTMTR). Debris objects in space refer to the collection of defunct objects orbiting the Earth. Examples of debris include non-operational satellites, rocket bodies, and fragments generated from explosions, collisions, or faulty payload assembly.

Loading next visibility...
Identifier
41677, 2007-052J
Orbit
HEO
Country
Flag of CISCIS
Related business
Manufacturer
RKKE
Mission
Spacecraft
Bus & Motor
Unknown
Mass
Unknown
Launch date (UTC)
2007-10-26 (19 years ago)
Launch vehicle
Unknown
Launch site
Tyuratam Missile And Space Complex (TTMTR)
Object type
Payload
Rocket body
Debris
Shape & HBR
Unknown shape, 0.7 m
Radar Cross Section
Medium (>0.1 m² and <1 m²)

Expand to show TLE details & history
Last TLE update: 1 day ago

TLE from 1 day ago
0 SL-12 DEB
1 41677U 07052J   26129.30809125  .00000791  00000-0  26084-2 0  9996
2 41677  64.9462 216.4519 5599999 228.3977  67.9965  4.38841858186005
Epoch: 2026-05-09T07:23Z
TLE epoch observation values (Epoch: 2026-05-09T07:23:39.084Z)
Latitude
0.00004°
Longitude
-121.58165°
Altitude
10,856.655 km
Speed
4.579 km/s
True Right ascension
14h 25m 50s
True Declination
0° 00' 00"
Sunlit
Object was in full shadow at epoch
Visualization orbit readout
Latitude
Unknown
Longitude
Unknown
Altitude
Unknown
Speed
Unknown
Apparent Right ascension
Unknown
Apparent Declination
Unknown
Sunlit
N/A
Visualization observer readout
Local Sidereal Time
22:04:21
Azimuth
Unknown
Elevation
Unknown
Doppler factor
Unknown
Orbital elements
Apogee altitude
18,204.211 km
Perigee altitude
555.348 km
Semi-major axis
15,757.916 km
Eccentricity
0.56
Inclination
64.9462°
RAAN
216.4519°
Arg. of periapsis
228.3977°
True anomaly
131.68148°
Mean anomaly
67.9965°
Eccentric anomaly
99.63°
Mean motion
1.09722 °/min
Orbital period
328.1 mins
BSTAR
0.0026084
Loading maneuver chart data...
Computing Atmospheric mass density...
Loading historical data...
Loading historical data...
Loading historical data...
Loading historical data...
Loading historical data...
Loading historical data...
Loading historical data...

Documentation

Showing up to 5 results
|